sat.trackr.live / text

‹ back to catalog

STARLINK-3043

NORAD 49179 · 2021-082BB

PAYLOAD ACTIVE UNKNOWN

§ Identity

Operator
Country
US
Launch date
2021-09-14
Launch site
AFWTR
Launch vehicle
Mass (kg)
RCS (m²)

Purposes: comms

External: N2YO · Heavens-Above · Gunter

§ Orbital elements

Epoch: 2026-05-25T03:41:16.122912Z

Period
96.11 min
Inclination
70.0007°
Eccentricity
0.0002561
Mean motion
14.98332384 rev/d
Perigee alt
570.3 km
Apogee alt
573.8 km
Semi-major
6,950.2 km
B*
2.6982e-5
RAAN
61.6552°
Arg perigee
269.5663°
Mean anomaly
90.5203°
Rev number
25,841

§ Raw data

STARLINK-30431 49179U 21082BB  26145.15365883  .00000229  00000+0  26982-4 0  99932 49179  70.0007  61.6552 0002561 269.5663  90.5203 14.98332384258416

JSON: /api/v1/satellites/49179 · /tle

For live sub-satellite position, see the globe view (requires WebGL).

§ Visibility from observer

Set your observer location to see the next 7 days of passes ≥ 10°. The values pass through the URL so the page stays shareable.

No JS? Fill the form by hand. The geolocation button needs JavaScript.